Temp
-9 -9 -9 -9 -9 -9 -9 -9 -9 -9 -9 -9 -9 -9 -9 -9 -9 -9 -9 -9 -8 -8 -8 -8 -7 -8 -7 -7 -7 -7 -7 -7 -7 -7 -8 -8 -8 -9 -9 -10 -11 -11 -11 -11 -11 -11 -10 -10 -10 -10 -10 -10 -10 -10 -10 -10 -10 -10 -9 -9 -9 -9 -9 -9 -9 -8 -8 -8 -8 -8 -8 -8 -8 -8
-9 -9 -9 -9 -9 -9 -9 -9 -9 -9 -9 -9 -9 -9 -9 -9 -9 -9 -10 -10 -9 -9 -9 -8 -8 -8 -8 -8 -7 -7 -7 -7 -7 -7 -8 -8 -8 -9 -9 -10 -11 -11 -11 -11 -11 -11 -11 -11 -11 -10 -10 -10 -10 -10 -10 -10 -10 -10 -10 -9 -9 -9 -9 -9 -9 -8 -8 -8 -8 -8 -8 -8 -8 -8
-10 -9 -9 -9 -9 -9 -9 -9 -9 -9 -9 -9 -9 -9 -9 -9 -9 -9 -9 -9 -10 -9 -9 -9 -9 -8 -8 -8 -8 -8 -8 -8 -8 -8 -8 -8 -8 -9 -10 -11 -11 -11 -12 -12 -11 -11 -11 -11 -11 -11 -10 -10 -10 -10 -10 -10 -10 -10 -10 -10 -9 -9 -9 -9 -9 -9 -8 -8 -8 -8 -8 -8 -8 -8
-10 -10 -9 -9 -9 -9 -9 -9 -9 -9 -9 -9 -9 -9 -9 -8 -8 -8 -8 -8 -9 -9 -9 -9 -9 -9 -8 -9 -9 -9 -9 -8 -8 -9 -9 -9 -9 -9 -10 -11 -11 -12 -12 -12 -12 -12 -11 -11 -11 -11 -11 -10 -10 -10 -10 -10 -10 -10 -10 -10 -9 -9 -9 -9 -9 -9 -8 -8 -8 -8 -8 -8 -8 -8
-10 -10 -10 -9 -9 -9 -9 -9 -9 -9 -9 -9 -9 -9 -8 -8 -8 -8 -8 -8 -8 -9 -9 -9 -9 -9 -9 -9 -9 -9 -9 -9 -9 -9 -9 -9 -9 -10 -10 -11 -11 -12 -12 -12 -12 -12 -12 -11 -11 -11 -11 -11 -11 -10 -10 -10 -10 -10 -10 -10 -9 -9 -9 -9 -9 -9 -9 -8 -8 -8 -8 -8 -8 -8
-10 -10 -10 -10 -10 -9 -9 -9 -9 -8 -8 -8 -8 -8 -8 -8 -8 -8 -8 -8 -8 -8 -9 -9 -9 -9 -9 -9 -9 -10 -10 -10 -9 -9 -9 -10 -10 -11 -11 -11 -12 -12 -12 -12 -12 -12 -12 -12 -12 -12 -12 -11 -11 -11 -11 -10 -10 -10 -10 -10 -10 -9 -9 -9 -9 -9 -9 -8 -8 -8 -8 -8 -8 -8
-10 -10 -10 -10 -10 -10 -9 -9 -8 -8 -8 -8 -8 -8 -8 -8 -9 -9 -9 -9 -9 -9 -9 -9 -9 -9 -9 -9 -9 -9 -10 -10 -10 -10 -10 -10 -11 -11 -12 -12 -12 -12 -12 -12 -12 -12 -12 -12 -12 -12 -12 -12 -12 -12 -11 -11 -10 -10 -10 -10 -10 -9 -9 -9 -9 -9 -8 -8 -8 -8 -8 -8 -8 -8
-10 -10 -10 -10 -10 -10 -9 -9 -8 -8 -8 -8 -8 -8 -9 -9 -9 -9 -9 -9 -9 -9 -9 -9 -9 -9 -9 -9 -9 -9 -10 -10 -10 -10 -10 -11 -11 -12 -12 -12 -12 -12 -12 -12 -12 -12 -13 -13 -12 -12 -12 -12 -12 -12 -12 -12 -11 -11 -10 -10 -10 -10 -9 -9 -9 -9 -8 -8 -8 -8 -8 -8 -8 -8
-10 -10 -10 -10 -10 -10 -9 -9 -9 -8 -8 -8 -9 -9 -9 -9 -9 -9 -9 -9 -9 -9 -9 -9 -9 -9 -9 -9 -9 -10 -10 -10 -11 -11 -11 -12 -12 -12 -13 -13 -13 -13 -13 -13 -13 -13 -13 -13 -13 -13 -13 -13 -13 -13 -12 -12 -12 -12 -11 -10 -10 -10 -10 -9 -9 -9 -9 -8 -8 -8 -8 -8 -8 -8
-10 -10 -10 -10 -10 -10 -10 -9 -9 -9 -9 -9 -9 -9 -9 -9 -10 -10 -10 -10 -9 -9 -9 -9 -9 -9 -9 -9 -10 -10 -10 -11 -11 -11 -12 -12 -12 -13 -13 -13 -13 -13 -13 -13 -13 -13 -14 -13 -13 -13 -13 -13 -13 -13 -13 -13 -13 -12 -12 -11 -11 -10 -10 -10 -9 -9 -9 -8 -8 -8 -8 -8 -8 -7
-10 -10 -10 -10 -10 -10 -10 -10 -9 -9 -9 -9 -10 -10 -10 -10 -10 -10 -10 -10 -10 -10 -9 -9 -10 -10 -10 -10 -11 -11 -11 -11 -12 -12 -12 -13 -13 -13 -13 -13 -14 -14 -14 -14 -14 -14 -14 -14 -14 -14 -13 -13 -13 -13 -13 -13 -13 -13 -12 -12 -11 -11 -10 -10 -9 -9 -9 -9 -8 -8 -8 -8 -8 -7
-10 -10 -11 -10 -10 -10 -10 -10 -9 -9 -10 -10 -10 -10 -10 -10 -10 -10 -10 -10 -10 -10 -10 -10 -10 -10 -10 -11 -11 -11 -12 -12 -12 -12 -13 -13 -13 -13 -14 -14 -14 -14 -14 -14 -14 -14 -14 -14 -14 -14 -14 -14 -14 -13 -13 -13 -13 -13 -12 -12 -12 -11 -11 -10 -10 -9 -9 -9 -8 -8 -8 -8 -8 -7
-10 -11 -11 -10 -10 -10 -10 -10 -10 -10 -10 -10 -10 -10 -10 -10 -10 -10 -10 -10 -10 -10 -10 -10 -11 -11 -11 -11 -12 -12 -12 -12 -13 -13 -13 -13 -13 -14 -14 -14 -15 -15 -14 -14 -14 -14 -14 -14 -14 -14 -14 -14 -14 -14 -13 -13 -13 -13 -12 -12 -12 -11 -11 -10 -10 -9 -9 -9 -8 -8 -8 -8 -7 -7
-10 -10 -10 -10 -10 -10 -10 -10 -10 -10 -10 -10 -10 -10 -10 -10 -11 -10 -10 -10 -10 -11 -11 -11 -11 -11 -12 -12 -12 -12 -13 -13 -13 -13 -14 -14 -14 -14 -14 -14 -15 -15 -15 -14 -14 -14 -14 -14 -14 -14 -14 -14 -14 -14 -14 -13 -13 -13 -12 -12 -12 -11 -11 -11 -10 -9 -9 -9 -9 -8 -8 -8 -7 -7
-10 -10 -10 -10 -10 -10 -10 -10 -10 -10 -11 -11 -11 -11 -11 -11 -11 -11 -11 -11 -11 -11 -11 -11 -12 -12 -12 -12 -12 -13 -13 -13 -13 -13 -14 -14 -14 -14 -14 -14 -14 -15 -15 -14 -14 -14 -14 -14 -14 -14 -14 -14 -14 -14 -14 -13 -13 -12 -12 -11 -11 -11 -11 -11 -10 -10 -9 -9 -9 -8 -8 -8 -7 -7
-10 -11 -11 -11 -11 -11 -11 -11 -11 -11 -11 -11 -11 -11 -11 -11 -11 -11 -11 -11 -11 -11 -11 -12 -12 -12 -12 -12 -13 -13 -13 -13 -14 -14 -14 -14 -14 -14 -14 -14 -14 -15 -15 -14 -14 -14 -14 -15 -14 -14 -14 -14 -14 -14 -14 -13 -12 -12 -11 -11 -11 -11 -11 -11 -10 -10 -9 -9 -9 -8 -8 -8 -8 -7
-11 -11 -11 -11 -11 -11 -11 -11 -11 -11 -11 -11 -11 -11 -11 -11 -11 -12 -12 -11 -11 -12 -12 -12 -12 -12 -13 -13 -13 -13 -13 -14 -14 -14 -14 -14 -14 -14 -14 -14 -14 -14 -15 -14 -14 -14 -15 -15 -14 -14 -14 -14 -14 -14 -13 -13 -12 -11 -11 -11 -11 -10 -10 -10 -10 -10 -10 -9 -9 -9 -8 -8 -8 -7
-11 -11 -11 -11 -11 -11 -11 -11 -12 -12 -11 -11 -11 -11 -12 -12 -12 -12 -12 -12 -12 -12 -12 -12 -13 -13 -13 -13 -13 -14 -14 -14 -14 -14 -14 -14 -15 -14 -14 -14 -14 -15 -15 -15 -14 -14 -14 -14 -14 -14 -14 -14 -14 -13 -13 -12 -11 -11 -11 -10 -10 -10 -10 -10 -10 -10 -10 -10 -9 -9 -8 -8 -8 -8
-11 -11 -11 -11 -11 -11 -11 -11 -12 -12 -12 -12 -12 -12 -12 -13 -13 -12 -12 -12 -12 -12 -12 -13 -13 -13 -13 -13 -14 -14 -14 -14 -14 -14 -14 -14 -14 -14 -14 -15 -15 -15 -15 -15 -15 -14 -14 -14 -14 -14 -14 -14 -13 -13 -12 -12 -11 -11 -10 -10 -10 -10 -9 -9 -10 -10 -10 -10 -10 -9 -8 -8 -8 -8
-11 -12 -12 -12 -11 -12 -12 -12 -12 -12 -12 -12 -13 -13 -13 -13 -13 -13 -13 -13 -13 -13 -13 -13 -13 -13 -13 -14 -14 -14 -14 -14 -14 -14 -14 -14 -15 -14 -14 -15 -15 -15 -15 -15 -15 -14 -14 -14 -14 -14 -14 -13 -13 -13 -12 -12 -11 -10 -10 -10 -10 -9 -9 -9 -9 -10 -10 -10 -10 -10 -9 -8 -8 -8
-12 -12 -12 -12 -12 -12 -12 -12 -12 -12 -13 -13 -13 -13 -13 -13 -13 -13 -13 -13 -13 -13 -14 -14 -14 -14 -14 -14 -14 -14 -14 -14 -14 -14 -14 -15 -15 -15 -15 -15 -15 -15 -15 -15 -15 -14 -13 -13 -14 -14 -14 -14 -13 -13 -12 -12 -11 -11 -10 -10 -9 -9 -9 -9 -9 -9 -10 -10 -10 -10 -9 -8 -8 -8
-12 -12 -12 -12 -12 -13 -13 -13 -13 -13 -13 -13 -13 -13 -13 -13 -13 -13 -13 -13 -13 -14 -14 -14 -14 -14 -14 -14 -14 -14 -14 -14 -14 -14 -14 -15 -15 -15 -15 -15 -14 -14 -15 -15 -15 -14 -13 -14 -14 -14 -14 -13 -13 -13 -12 -11 -11 -11 -10 -10 -9 -9 -9 -9 -9 -9 -9 -10 -10 -9 -8 -8 -8 -8
-12 -12 -12 -12 -13 -13 -13 -13 -13 -13 -13 -13 -14 -14 -14 -14 -14 -14 -14 -14 -14 -14 -14 -14 -14 -15 -14 -14 -14 -14 -14 -14 -15 -15 -15 -15 -15 -15 -15 -14 -14 -14 -15 -15 -14 -13 -14 -14 -14 -15 -14 -13 -13 -13 -11 -11 -11 -11 -11 -10 -9 -9 -9 -9 -9 -9 -9 -10 -10 -9 -8 -8 -8 -8
-12 -12 -13 -13 -13 -13 -13 -13 -13 -13 -14 -14 -14 -14 -14 -14 -14 -14 -14 -14 -14 -14 -15 -15 -15 -15 -15 -15 -14 -14 -14 -14 -15 -15 -15 -15 -15 -15 -15 -14 -14 -14 -15 -15 -14 -14 -14 -14 -14 -15 -14 -12 -12 -13 -12 -11 -12 -11 -11 -10 -10 -9 -9 -9 -9 -9 -9 -9 -9 -9 -9 -8 -8 -8
-13 -13 -13 -13 -13 -13 -13 -13 -14 -14 -14 -14 -14 -14 -14 -14 -14 -14 -14 -14 -14 -15 -15 -15 -15 -15 -15 -15 -15 -15 -15 -15 -15 -15 -15 -15 -15 -15 -15 -14 -14 -14 -15 -15 -14 -14 -14 -14 -14 -14 -14 -13 -12 -13 -12 -12 -12 -11 -11 -10 -10 -9 -9 -9 -9 -9 -9 -9 -9 -9 -8 -8 -8 -7
-13 -13 -13 -13 -13 -13 -14 -14 -14 -14 -14 -14 -14 -14 -14 -14 -14 -14 -14 -14 -15 -15 -15 -15 -15 -15 -15 -15 -15 -15 -15 -15 -15 -15 -15 -15 -15 -15 -15 -14 -14 -15 -15 -15 -15 -14 -14 -14 -14 -14 -13 -13 -12 -12 -12 -12 -12 -11 -11 -10 -10 -9 -9 -8 -9 -9 -9 -9 -9 -9 -8 -8 -8 -7
-13 -13 -13 -13 -14 -14 -14 -14 -14 -14 -14 -14 -14 -14 -14 -14 -15 -15 -15 -15 -15 -15 -15 -15 -15 -15 -15 -15 -15 -15 -15 -15 -15 -15 -15 -15 -16 -15 -15 -15 -15 -15 -15 -15 -15 -15 -14 -14 -14 -13 -13 -12 -12 -12 -12 -12 -12 -11 -10 -10 -10 -9 -8 -8 -8 -8 -9 -9 -9 -9 -8 -8 -8 -7
-13 -13 -14 -14 -14 -14 -14 -14 -14 -14 -14 -14 -14 -14 -15 -15 -15 -15 -15 -15 -15 -16 -16 -15 -15 -16 -16 -15 -15 -15 -15 -15 -15 -15 -15 -16 -16 -15 -15 -15 -15 -15 -15 -15 -15 -15 -14 -14 -13 -13 -13 -12 -12 -12 -11 -11 -11 -11 -11 -10 -10 -9 -9 -9 -8 -8 -9 -9 -9 -9 -8 -8 -8 -8
-13 -14 -14 -14 -14 -14 -14 -14 -14 -14 -14 -14 -14 -15 -15 -15 -15 -15 -15 -16 -16 -16 -16 -16 -16 -16 -16 -16 -16 -15 -15 -15 -15 -15 -15 -16 -16 -16 -15 -15 -15 -15 -15 -15 -15 -15 -14 -14 -13 -13 -13 -13 -12 -12 -11 -11 -11 -11 -11 -10 -10 -10 -9 -9 -9 -9 -9 -9 -9 -9 -9 -8 -8 -8
-13 -13 -14 -14 -14 -14 -14 -14 -14 -14 -15 -15 -15 -15 -15 -15 -15 -16 -16 -16 -16 -16 -16 -16 -16 -16 -16 -16 -16 -16 -15 -15 -15 -15 -15 -16 -16 -16 -16 -16 -16 -15 -15 -15 -15 -15 -15 -14 -14 -13 -12 -12 -12 -12 -12 -12 -11 -11 -11 -11 -10 -10 -9 -9 -9 -9 -9 -9 -9 -10 -9 -9 -9 -9
-13 -14 -14 -14 -14 -14 -14 -14 -15 -15 -15 -15 -15 -15 -15 -16 -16 -16 -16 -16 -16 -16 -16 -16 -16 -16 -16 -16 -16 -16 -16 -15 -15 -15 -15 -15 -16 -16 -16 -16 -15 -15 -15 -15 -15 -15 -15 -14 -14 -13 -12 -12 -12 -12 -12 -12 -12 -12 -11 -11 -10 -10 -10 -9 -9 -9 -9 -9 -10 -10 -10 -10 -9 -9
-14 -14 -14 -14 -14 -15 -15 -15 -15 -15 -15 -15 -15 -15 -16 -16 -16 -16 -16 -16 -16 -16 -16 -16 -16 -16 -16 -16 -16 -16 -16 -16 -15 -15 -15 -15 -16 -16 -16 -15 -15 -15 -15 -15 -15 -15 -15 -15 -14 -13 -13 -12 -13 -13 -13 -13 -12 -12 -12 -11 -11 -11 -10 -10 -10 -10 -10 -10 -10 -10 -10 -10 -10 -9
-14 -14 -15 -15 -15 -15 -15 -15 -15 -15 -15 -15 -16 -16 -16 -16 -16 -16 -16 -16 -16 -16 -16 -16 -16 -17 -17 -16 -16 -16 -16 -16 -16 -16 -16 -15 -15 -16 -15 -15 -15 -15 -15 -15 -15 -15 -15 -15 -14 -13 -13 -13 -13 -13 -13 -13 -13 -12 -12 -11 -11 -11 -11 -11 -10 -10 -10 -10 -10 -10 -10 -10 -10 -10
-15 -15 -15 -15 -15 -15 -15 -15 -15 -15 -15 -16 -16 -16 -16 -16 -16 -16 -16 -16 -16 -16 -16 -16 -17 -17 -17 -16 -16 -16 -16 -16 -16 -16 -16 -16 -15 -16 -16 -15 -15 -15 -15 -15 -15 -15 -15 -14 -14 -13 -13 -13 -13 -13 -13 -13 -13 -12 -12 -12 -11 -11 -11 -11 -11 -11 -11 -11 -10 -10 -10 -10 -10 -10
-15 -15 -16 -15 -15 -15 -15 -16 -16 -16 -16 -16 -16 -16 -16 -16 -16 -16 -16 -16 -16 -16 -16 -17 -17 -17 -17 -16 -16 -16 -16 -16 -16 -16 -16 -16 -16 -16 -16 -15 -15 -15 -15 -15 -15 -15 -15 -14 -14 -13 -13 -13 -13 -13 -13 -13 -12 -12 -12 -12 -11 -11 -11 -11 -11 -11 -11 -11 -10 -10 -10 -10 -10 -10
-16 -16 -16 -16 -16 -16 -16 -16 -16 -16 -16 -16 -16 -16 -16 -16 -16 -16 -16 -16 -16 -17 -17 -17 -17 -17 -17 -16 -16 -16 -16 -16 -16 -16 -16 -16 -16 -16 -16 -16 -15 -15 -15 -15 -15 -15 -15 -14 -14 -13 -13 -13 -13 -13 -13 -13 -12 -12 -12 -12 -12 -11 -12 -11 -11 -11 -11 -11 -10 -10 -10 -10 -10 -10
-16 -16 -16 -16 -16 -16 -16 -16 -16 -16 -16 -16 -16 -16 -16 -16 -16 -16 -17 -17 -17 -17 -17 -17 -17 -17 -17 -17 -16 -16 -16 -16 -16 -16 -16 -16 -16 -16 -16 -16 -16 -15 -15 -15 -15 -15 -15 -15 -14 -13 -13 -13 -13 -13 -13 -13 -12 -12 -12 -12 -12 -12 -12 -11 -11 -11 -11 -11 -10 -10 -10 -10 -10 -10
-16 -16 -16 -16 -16 -16 -16 -16 -16 -16 -16 -16 -16 -16 -16 -16 -17 -17 -17 -17 -17 -17 -17 -17 -17 -17 -17 -17 -16 -16 -16 -16 -16 -16 -16 -16 -16 -16 -16 -16 -16 -15 -15 -15 -15 -15 -15 -15 -14 -13 -13 -13 -13 -13 -13 -13 -12 -12 -12 -12 -12 -12 -12 -11 -11 -11 -11 -11 -11 -11 -11 -10 -10 -10
-16 -16 -16 -16 -16 -16 -16 -16 -16 -16 -16 -16 -16 -16 -17 -17 -17 -17 -17 -17 -17 -17 -17 -17 -17 -17 -17 -17 -17 -16 -16 -16 -16 -16 -16 -16 -16 -16 -16 -16 -16 -16 -15 -15 -15 -15 -15 -15 -15 -14 -13 -13 -13 -13 -13 -13 -12 -12 -12 -12 -12 -12 -12 -11 -11 -11 -11 -11 -11 -11 -10 -10 -10 -10
-16 -16 -16 -16 -16 -16 -16 -16 -16 -16 -16 -16 -16 -17 -17 -17 -17 -17 -17 -17 -17 -17 -17 -17 -17 -17 -17 -17 -17 -17 -17 -17 -17 -16 -16 -16 -16 -16 -16 -16 -16 -16 -15 -15 -15 -15 -15 -15 -15 -14 -14 -13 -13 -13 -13 -13 -13 -12 -12 -12 -12 -12 -12 -12 -12 -11 -11 -11 -11 -11 -10 -10 -10 -10
-16 -16 -16 -16 -16 -16 -16 -16 -16 -16 -16 -17 -17 -17 -17 -17 -17 -17 -17 -17 -17 -17 -17 -17 -17 -17 -17 -17 -17 -17 -17 -17 -17 -16 -16 -16 -16 -16 -16 -16 -16 -16 -16 -15 -15 -15 -15 -15 -15 -15 -14 -13 -13 -13 -13 -13 -13 -12 -12 -12 -12 -12 -12 -11 -11 -11 -11 -11 -11 -11 -11 -11 -11 -10
-16 -16 -16 -16 -16 -16 -17 -17 -17 -17 -17 -17 -17 -17 -17 -17 -17 -17 -17 -17 -17 -17 -17 -17 -17 -17 -17 -17 -17 -17 -17 -17 -17 -17 -17 -16 -16 -16 -16 -16 -16 -16 -16 -15 -15 -15 -15 -15 -15 -15 -14 -14 -13 -13 -13 -13 -13 -13 -12 -12 -12 -12 -12 -11 -11 -11 -11 -11 -11 -11 -11 -11 -11 -10
-16 -16 -16 -16 -17 -17 -17 -17 -17 -17 -17 -17 -17 -17 -17 -17 -17 -17 -17 -17 -17 -17 -17 -17 -17 -17 -17 -17 -17 -17 -17 -17 -17 -17 -17 -16 -16 -16 -16 -16 -16 -16 -16 -16 -15 -15 -16 -16 -16 -15 -15 -14 -13 -13 -13 -13 -13 -13 -12 -12 -12 -12 -12 -12 -12 -12 -11 -10 -10 -11 -11 -11 -11 -11
-16 -16 -16 -17 -17 -17 -17 -17 -17 -17 -17 -17 -17 -17 -17 -18 -18 -18 -18 -18 -18 -18 -18 -18 -18 -18 -18 -17 -17 -17 -17 -17 -17 -17 -17 -17 -17 -16 -16 -16 -16 -16 -16 -16 -16 -15 -16 -16 -16 -16 -15 -15 -14 -13 -13 -13 -13 -13 -12 -12 -12 -12 -12 -12 -12 -12 -11 -11 -11 -11 -11 -11 -11 -10
-16 -17 -17 -17 -17 -17 -17 -17 -17 -17 -18 -18 -18 -18 -18 -18 -18 -18 -18 -18 -18 -18 -18 -18 -18 -18 -18 -18 -18 -18 -17 -17 -17 -17 -17 -17 -17 -17 -16 -16 -16 -16 -16 -16 -16 -16 -15 -16 -16 -16 -15 -15 -14 -14 -13 -13 -13 -12 -12 -12 -12 -12 -12 -12 -12 -12 -11 -11 -11 -11 -11 -11 -11 -11
Height
5872 5871 5870 5869 5869 5868 5866 5865 5864 5863 5861 5860 5859 5858 5857 5856 5855 5854 5853 5851 5849 5848 5847 5844 5843 5842 5840 5838 5836 5834 5832 5831 5829 5828 5827 5826 5824 5822 5821 5821 5820 5820 5821 5821 5821 5822 5823 5823 5824 5824 5824 5826 5827 5828 5828 5830 5831 5832 5834 5836 5838 5840 5842 5845 5848 5850 5853 5856 5859 5862 5865 5867 5870 5872
5868 5867 5866 5865 5864 5863 5862 5861 5860 5858 5857 5855 5854 5853 5852 5851 5850 5850 5850 5849 5847 5844 5843 5842 5839 5838 5836 5834 5832 5831 5829 5827 5825 5823 5821 5820 5818 5816 5815 5814 5813 5813 5814 5814 5814 5814 5814 5815 5816 5816 5817 5817 5819 5821 5822 5823 5824 5826 5827 5829 5831 5833 5836 5838 5841 5844 5847 5850 5853 5856 5859 5862 5864 5867
5864 5863 5862 5861 5860 5859 5858 5856 5855 5854 5852 5851 5849 5848 5847 5846 5845 5845 5844 5844 5843 5840 5838 5837 5835 5833 5831 5830 5828 5826 5824 5822 5820 5818 5815 5813 5812 5810 5809 5807 5806 5806 5806 5807 5807 5807 5807 5807 5808 5808 5809 5809 5811 5812 5814 5815 5817 5819 5820 5822 5824 5826 5829 5831 5834 5837 5840 5843 5847 5850 5853 5856 5859 5861
5860 5859 5858 5857 5856 5855 5854 5852 5850 5849 5848 5846 5845 5844 5842 5841 5840 5839 5838 5837 5837 5835 5833 5831 5830 5828 5826 5825 5823 5820 5818 5816 5814 5812 5809 5807 5805 5803 5802 5801 5800 5799 5798 5798 5799 5799 5799 5799 5800 5800 5801 5802 5802 5804 5806 5807 5809 5811 5813 5815 5817 5819 5821 5824 5827 5830 5833 5836 5840 5843 5846 5849 5853 5856
5856 5855 5854 5853 5852 5851 5850 5848 5846 5845 5843 5842 5841 5840 5838 5837 5836 5835 5834 5832 5830 5829 5827 5826 5824 5822 5820 5819 5817 5814 5812 5809 5807 5805 5803 5800 5798 5796 5795 5794 5794 5793 5791 5790 5790 5791 5792 5792 5792 5792 5793 5794 5795 5795 5797 5799 5801 5803 5805 5808 5809 5811 5814 5816 5819 5822 5826 5829 5832 5836 5839 5842 5846 5849
5851 5851 5850 5849 5848 5847 5846 5844 5842 5841 5839 5838 5837 5836 5835 5833 5832 5830 5829 5827 5825 5823 5822 5820 5818 5816 5814 5812 5810 5808 5806 5803 5800 5798 5796 5793 5791 5790 5788 5787 5786 5786 5785 5783 5782 5783 5784 5784 5784 5785 5785 5786 5787 5788 5789 5791 5793 5795 5797 5800 5802 5804 5806 5809 5811 5814 5818 5821 5825 5828 5832 5835 5839 5843
5848 5847 5846 5845 5844 5843 5842 5840 5838 5837 5836 5835 5834 5832 5831 5830 5828 5826 5824 5823 5821 5818 5816 5814 5812 5810 5807 5805 5803 5801 5799 5797 5794 5792 5789 5787 5785 5783 5782 5780 5779 5778 5777 5776 5775 5775 5775 5776 5777 5777 5778 5778 5779 5780 5781 5782 5785 5787 5789 5791 5794 5796 5798 5801 5804 5807 5810 5813 5817 5821 5825 5828 5832 5836
5844 5843 5842 5841 5840 5839 5838 5837 5835 5834 5833 5832 5831 5829 5828 5826 5824 5822 5819 5818 5816 5814 5811 5808 5806 5804 5801 5798 5796 5794 5792 5790 5788 5786 5783 5781 5778 5777 5775 5773 5772 5771 5769 5768 5767 5767 5767 5768 5769 5770 5771 5772 5772 5772 5773 5775 5776 5778 5780 5782 5785 5788 5790 5793 5796 5799 5802 5805 5809 5813 5817 5821 5825 5829
5840 5839 5838 5837 5836 5835 5834 5833 5831 5831 5830 5829 5827 5825 5824 5822 5819 5817 5815 5813 5811 5809 5806 5803 5801 5798 5795 5792 5790 5787 5786 5784 5781 5779 5777 5774 5771 5770 5769 5766 5764 5764 5763 5761 5760 5759 5759 5760 5761 5762 5764 5765 5765 5765 5766 5767 5768 5770 5772 5774 5776 5779 5782 5785 5788 5791 5794 5798 5801 5806 5810 5814 5818 5822
5836 5835 5834 5833 5832 5831 5830 5829 5828 5827 5826 5825 5823 5821 5819 5817 5814 5812 5810 5808 5806 5804 5802 5798 5795 5792 5790 5787 5784 5781 5779 5777 5775 5772 5769 5767 5764 5763 5762 5760 5758 5757 5756 5755 5753 5752 5752 5752 5753 5755 5756 5757 5758 5759 5759 5759 5760 5761 5763 5765 5767 5770 5773 5776 5779 5782 5786 5790 5793 5798 5802 5806 5810 5815
5831 5830 5829 5829 5828 5827 5826 5825 5824 5823 5822 5820 5819 5817 5815 5813 5810 5807 5805 5803 5801 5799 5797 5794 5790 5787 5784 5782 5778 5774 5772 5770 5768 5765 5762 5761 5758 5756 5754 5753 5751 5750 5748 5748 5747 5746 5746 5746 5747 5748 5749 5750 5751 5751 5751 5752 5753 5754 5755 5757 5759 5761 5764 5767 5771 5774 5777 5781 5785 5789 5794 5799 5803 5807
5827 5826 5825 5824 5824 5823 5822 5821 5820 5819 5818 5816 5814 5812 5810 5808 5806 5803 5800 5798 5795 5792 5790 5788 5786 5782 5779 5776 5773 5768 5766 5763 5761 5758 5756 5754 5752 5750 5747 5746 5745 5743 5742 5741 5740 5739 5739 5740 5741 5741 5742 5743 5743 5743 5744 5745 5746 5746 5747 5748 5750 5752 5755 5758 5762 5765 5769 5773 5777 5781 5786 5791 5795 5800
5824 5822 5821 5820 5820 5819 5818 5817 5816 5815 5813 5811 5809 5807 5805 5803 5800 5798 5795 5793 5790 5787 5784 5781 5780 5777 5774 5771 5767 5763 5760 5757 5754 5752 5749 5747 5745 5743 5742 5740 5738 5737 5736 5735 5734 5734 5733 5734 5735 5735 5735 5735 5735 5735 5736 5737 5738 5738 5739 5740 5742 5744 5746 5749 5752 5756 5760 5764 5769 5773 5777 5782 5787 5793
5819 5818 5818 5817 5816 5815 5813 5812 5811 5810 5808 5806 5803 5801 5800 5798 5795 5793 5791 5788 5786 5782 5779 5775 5773 5771 5768 5765 5761 5757 5754 5751 5749 5747 5744 5741 5739 5737 5736 5735 5733 5731 5729 5729 5729 5729 5727 5727 5728 5728 5728 5728 5728 5728 5729 5729 5728 5729 5731 5732 5734 5735 5738 5740 5744 5747 5752 5756 5760 5764 5769 5774 5779 5785
5815 5815 5814 5814 5812 5811 5809 5808 5806 5805 5802 5800 5798 5796 5794 5792 5790 5787 5785 5783 5780 5777 5774 5770 5767 5765 5762 5759 5755 5752 5748 5745 5743 5741 5739 5737 5734 5732 5730 5730 5728 5726 5723 5723 5724 5724 5722 5721 5722 5723 5722 5722 5721 5721 5721 5720 5720 5720 5722 5724 5726 5727 5729 5732 5735 5739 5743 5747 5751 5756 5761 5766 5771 5777
5811 5811 5811 5810 5808 5807 5805 5803 5801 5799 5797 5795 5793 5791 5788 5786 5784 5782 5780 5777 5775 5772 5769 5765 5762 5759 5756 5753 5749 5746 5743 5740 5738 5736 5734 5732 5730 5727 5725 5724 5723 5721 5719 5717 5718 5719 5717 5715 5716 5717 5716 5715 5715 5713 5712 5711 5711 5712 5713 5715 5717 5719 5721 5724 5727 5730 5734 5738 5743 5747 5752 5758 5763 5769
5807 5807 5806 5805 5803 5802 5800 5798 5796 5794 5792 5790 5788 5785 5782 5780 5778 5776 5774 5772 5769 5766 5763 5760 5756 5753 5750 5748 5744 5741 5738 5736 5733 5731 5729 5727 5725 5723 5720 5719 5718 5715 5714 5712 5712 5714 5712 5709 5709 5711 5710 5708 5707 5705 5703 5702 5701 5702 5704 5706 5708 5710 5712 5715 5718 5721 5725 5730 5734 5738 5744 5749 5755 5761
5803 5802 5801 5800 5799 5797 5795 5793 5791 5789 5787 5785 5782 5779 5777 5774 5772 5770 5768 5765 5763 5760 5757 5754 5751 5748 5745 5742 5739 5736 5733 5731 5728 5726 5725 5722 5720 5718 5716 5714 5712 5710 5708 5707 5706 5708 5707 5702 5702 5704 5703 5700 5697 5695 5693 5692 5691 5692 5694 5696 5699 5701 5704 5706 5710 5713 5717 5721 5726 5729 5735 5741 5746 5752
5799 5798 5796 5795 5794 5791 5789 5788 5786 5784 5783 5781 5777 5774 5771 5768 5766 5764 5762 5759 5756 5754 5751 5748 5745 5742 5739 5736 5734 5731 5728 5725 5723 5721 5719 5717 5715 5713 5712 5710 5708 5705 5704 5702 5701 5701 5700 5697 5695 5695 5693 5689 5687 5684 5682 5681 5680 5681 5684 5686 5689 5692 5695 5697 5701 5705 5709 5713 5717 5721 5726 5733 5738 5744
5794 5793 5792 5791 5789 5787 5785 5783 5781 5779 5777 5775 5771 5768 5765 5762 5760 5758 5756 5753 5750 5747 5744 5742 5739 5736 5733 5731 5728 5725 5723 5720 5718 5716 5714 5712 5709 5708 5707 5705 5703 5701 5699 5697 5695 5693 5693 5691 5687 5685 5682 5678 5675 5673 5671 5670 5670 5672 5674 5676 5679 5681 5684 5688 5692 5695 5700 5704 5708 5711 5717 5724 5730 5736
5790 5789 5787 5785 5784 5781 5779 5778 5776 5773 5771 5768 5765 5762 5760 5757 5754 5751 5749 5747 5744 5740 5737 5735 5733 5731 5728 5725 5723 5720 5717 5715 5713 5711 5709 5707 5704 5703 5702 5700 5699 5697 5695 5692 5689 5686 5686 5683 5678 5674 5670 5667 5665 5663 5661 5660 5661 5662 5664 5666 5669 5672 5674 5678 5682 5686 5690 5695 5698 5702 5707 5715 5721 5727
5785 5784 5782 5780 5778 5775 5773 5771 5769 5767 5764 5761 5759 5756 5754 5752 5748 5745 5743 5740 5738 5735 5732 5729 5727 5725 5722 5720 5717 5715 5712 5710 5707 5705 5704 5701 5699 5698 5697 5694 5693 5692 5690 5686 5683 5680 5678 5676 5671 5663 5658 5658 5658 5653 5651 5653 5653 5653 5655 5657 5659 5663 5665 5669 5673 5677 5681 5686 5689 5693 5699 5706 5712 5717
5779 5778 5776 5774 5772 5769 5767 5765 5762 5760 5757 5755 5753 5751 5748 5746 5743 5739 5737 5734 5731 5729 5727 5724 5722 5720 5717 5715 5712 5710 5707 5705 5702 5700 5698 5696 5694 5693 5692 5689 5687 5686 5685 5680 5676 5673 5671 5668 5664 5656 5647 5647 5651 5647 5644 5646 5647 5646 5647 5648 5651 5654 5657 5660 5664 5668 5672 5677 5680 5685 5692 5698 5704 5709
5774 5772 5770 5768 5766 5763 5760 5758 5756 5754 5752 5750 5747 5745 5742 5740 5736 5733 5731 5728 5725 5723 5720 5719 5717 5715 5712 5710 5707 5705 5703 5700 5697 5695 5693 5691 5688 5687 5686 5684 5681 5680 5678 5675 5669 5666 5664 5660 5656 5650 5641 5638 5642 5643 5639 5639 5640 5640 5640 5641 5643 5646 5649 5652 5657 5661 5665 5669 5673 5678 5685 5691 5696 5701
5767 5765 5763 5762 5760 5757 5755 5753 5751 5748 5746 5744 5741 5739 5736 5733 5731 5727 5725 5722 5719 5717 5715 5713 5711 5709 5707 5705 5702 5700 5697 5695 5692 5690 5688 5686 5683 5681 5679 5678 5676 5674 5672 5669 5663 5658 5656 5653 5648 5644 5638 5633 5634 5638 5637 5635 5634 5634 5634 5636 5637 5639 5642 5646 5650 5654 5658 5663 5667 5672 5679 5685 5690 5695
5761 5759 5757 5755 5754 5751 5749 5747 5745 5742 5740 5737 5735 5733 5730 5727 5725 5722 5719 5716 5714 5711 5709 5708 5706 5704 5702 5700 5697 5695 5692 5690 5687 5685 5683 5681 5678 5676 5674 5671 5669 5668 5666 5664 5659 5651 5648 5646 5641 5636 5633 5630 5629 5631 5632 5631 5629 5628 5628 5630 5631 5633 5636 5640 5644 5648 5653 5657 5662 5668 5674 5679 5684 5689
5755 5753 5751 5749 5748 5746 5743 5741 5738 5736 5734 5732 5729 5727 5724 5722 5719 5716 5713 5711 5708 5706 5704 5703 5701 5699 5697 5695 5692 5690 5687 5685 5683 5680 5678 5676 5674 5671 5669 5666 5663 5661 5659 5657 5654 5647 5641 5639 5635 5630 5628 5627 5626 5625 5626 5626 5625 5624 5623 5625 5626 5628 5631 5635 5639 5643 5647 5652 5657 5662 5667 5672 5677 5683
5749 5747 5745 5744 5742 5739 5737 5735 5732 5730 5728 5726 5723 5721 5718 5716 5714 5711 5708 5705 5703 5701 5699 5698 5696 5694 5692 5690 5687 5685 5683 5680 5679 5676 5674 5672 5669 5666 5665 5662 5658 5655 5652 5650 5647 5642 5635 5631 5628 5625 5623 5622 5621 5620 5620 5620 5620 5620 5619 5620 5621 5622 5625 5629 5633 5637 5642 5646 5650 5655 5660 5666 5672 5677
5744 5741 5739 5737 5735 5733 5731 5728 5726 5724 5722 5720 5718 5715 5713 5711 5708 5705 5703 5700 5698 5697 5695 5693 5691 5689 5687 5685 5682 5680 5678 5676 5674 5672 5670 5668 5665 5662 5660 5658 5654 5650 5647 5644 5641 5636 5631 5626 5622 5621 5619 5618 5616 5615 5615 5615 5615 5615 5615 5615 5617 5618 5621 5624 5628 5632 5636 5640 5645 5649 5655 5661 5666 5672
5738 5736 5734 5732 5729 5727 5725 5723 5720 5718 5716 5714 5712 5710 5707 5705 5702 5700 5697 5695 5693 5692 5690 5688 5686 5684 5682 5680 5678 5676 5674 5672 5670 5668 5666 5664 5661 5658 5656 5654 5651 5646 5642 5638 5635 5631 5626 5622 5618 5616 5616 5614 5613 5611 5610 5610 5610 5610 5610 5612 5613 5615 5617 5620 5624 5628 5631 5635 5640 5644 5649 5655 5660 5666
5733 5731 5728 5726 5724 5721 5719 5717 5715 5713 5711 5709 5706 5704 5701 5699 5696 5694 5693 5691 5689 5687 5685 5683 5681 5680 5678 5676 5674 5672 5670 5668 5666 5664 5662 5659 5657 5654 5652 5650 5648 5644 5640 5635 5631 5627 5622 5619 5615 5613 5612 5611 5610 5608 5607 5606 5606 5606 5607 5608 5611 5613 5615 5617 5621 5625 5628 5630 5634 5638 5643 5649 5654 5660
5728 5726 5723 5720 5718 5716 5714 5712 5709 5708 5706 5703 5700 5698 5695 5693 5691 5689 5688 5686 5685 5682 5680 5678 5677 5675 5674 5672 5670 5669 5667 5664 5662 5660 5657 5655 5653 5650 5648 5646 5644 5642 5639 5635 5630 5625 5620 5616 5613 5610 5608 5607 5606 5605 5604 5603 5603 5602 5602 5604 5606 5608 5610 5613 5616 5620 5623 5626 5630 5634 5639 5644 5650 5656
5722 5720 5718 5715 5713 5711 5709 5706 5704 5702 5700 5697 5695 5692 5690 5688 5686 5685 5683 5682 5680 5678 5676 5674 5672 5671 5670 5668 5667 5665 5663 5661 5658 5656 5654 5651 5649 5646 5644 5642 5640 5638 5636 5633 5628 5624 5619 5614 5609 5607 5605 5604 5603 5602 5602 5601 5600 5600 5600 5601 5603 5605 5607 5610 5613 5615 5619 5623 5627 5631 5635 5640 5646 5652
5716 5714 5712 5710 5708 5706 5703 5701 5699 5696 5694 5692 5689 5687 5685 5683 5681 5680 5679 5677 5675 5673 5671 5670 5668 5667 5666 5665 5663 5661 5659 5657 5654 5652 5650 5647 5645 5642 5640 5638 5636 5633 5631 5628 5624 5620 5615 5610 5607 5604 5603 5602 5601 5600 5599 5599 5598 5598 5599 5600 5602 5603 5605 5608 5611 5613 5616 5620 5624 5627 5631 5637 5643 5648
5710 5708 5706 5704 5702 5700 5698 5695 5693 5690 5688 5686 5684 5682 5680 5679 5677 5676 5674 5673 5671 5669 5667 5666 5665 5664 5662 5661 5659 5657 5655 5653 5651 5648 5646 5644 5641 5639 5636 5634 5632 5630 5627 5624 5620 5615 5610 5606 5604 5602 5600 5599 5598 5598 5598 5597 5597 5597 5598 5600 5601 5602 5603 5606 5609 5611 5614 5617 5620 5624 5629 5634 5639 5645
5704 5702 5700 5698 5696 5694 5692 5690 5687 5685 5683 5681 5679 5677 5675 5674 5673 5671 5670 5668 5666 5665 5664 5663 5661 5660 5658 5656 5655 5653 5651 5649 5647 5645 5643 5640 5638 5636 5633 5631 5628 5626 5623 5620 5617 5612 5607 5603 5600 5598 5597 5596 5595 5595 5595 5595 5596 5596 5597 5598 5600 5601 5602 5604 5606 5608 5610 5613 5617 5623 5627 5631 5636 5642
5698 5697 5694 5692 5690 5688 5686 5684 5682 5680 5678 5676 5674 5672 5671 5669 5668 5667 5665 5664 5663 5661 5660 5659 5657 5655 5654 5652 5651 5649 5647 5645 5644 5642 5640 5637 5635 5632 5630 5628 5625 5623 5620 5617 5614 5610 5605 5601 5598 5596 5595 5594 5593 5593 5593 5593 5594 5595 5596 5597 5598 5599 5601 5602 5605 5606 5608 5611 5616 5621 5625 5629 5634 5639
5692 5691 5689 5687 5685 5683 5681 5679 5677 5675 5673 5671 5669 5668 5666 5665 5664 5663 5661 5660 5659 5657 5656 5655 5653 5651 5650 5648 5647 5645 5643 5642 5640 5639 5637 5634 5632 5629 5627 5625 5622 5620 5617 5614 5611 5607 5603 5599 5596 5594 5593 5592 5591 5591 5591 5591 5592 5593 5594 5596 5597 5598 5599 5601 5603 5605 5607 5610 5614 5618 5623 5627 5632 5637
5687 5685 5683 5681 5679 5677 5675 5674 5672 5670 5669 5667 5665 5664 5662 5661 5660 5658 5657 5656 5655 5654 5652 5651 5649 5647 5646 5644 5643 5641 5640 5638 5637 5635 5634 5631 5629 5627 5624 5622 5620 5617 5614 5612 5609 5606 5602 5598 5594 5592 5591 5590 5589 5589 5589 5589 5590 5592 5593 5594 5596 5597 5599 5601 5603 5605 5606 5608 5611 5617 5621 5626 5631 5635
5681 5679 5677 5676 5674 5672 5671 5669 5667 5665 5664 5662 5661 5659 5658 5657 5655 5654 5653 5652 5651 5649 5648 5646 5645 5643 5642 5640 5639 5637 5636 5635 5634 5632 5631 5628 5626 5624 5622 5620 5617 5615 5612 5610 5608 5605 5601 5597 5594 5591 5589 5588 5588 5588 5588 5589 5589 5591 5592 5593 5595 5597 5598 5600 5602 5604 5605 5607 5610 5614 5620 5625 5630 5634
5676 5674 5672 5671 5669 5667 5666 5664 5662 5661 5659 5658 5656 5655 5654 5652 5651 5650 5649 5647 5646 5645 5644 5642 5641 5639 5638 5636 5635 5634 5633 5632 5630 5629 5627 5625 5623 5621 5619 5617 5615 5613 5611 5608 5606 5603 5600 5597 5593 5590 5588 5587 5587 5587 5587 5588 5589 5590 5591 5592 5594 5596 5597 5600 5602 5603 5604 5607 5610 5613 5618 5623 5627 5631
5671 5669 5667 5666 5664 5662 5660 5659 5657 5656 5654 5653 5652 5650 5649 5648 5647 5645 5644 5643 5642 5641 5639 5638 5637 5635 5634 5632 5631 5630 5629 5628 5627 5626 5624 5623 5621 5618 5616 5614 5613 5611 5609 5607 5604 5602 5599 5596 5593 5590 5587 5586 5585 5585 5586 5587 5587 5589 5590 5591 5593 5595 5596 5598 5599 5600 5602 5606 5610 5612 5616 5621 5624 5628
5666 5664 5662 5661 5659 5657 5655 5654 5652 5650 5649 5648 5647 5646 5645 5643 5642 5641 5640 5639 5638 5637 5635 5634 5633 5631 5630 5629 5628 5627 5626 5625 5624 5622 5621 5620 5618 5616 5614 5612 5610 5609 5607 5605 5602 5601 5598 5596 5592 5589 5586 5585 5584 5584 5585 5586 5586 5587 5589 5590 5591 5593 5595 5595 5597 5598 5599 5602 5606 5610 5614 5619 5624 5627
5661 5659 5657 5656 5654 5652 5650 5649 5647 5646 5645 5643 5642 5641 5640 5639 5638 5637 5636 5634 5633 5632 5631 5630 5629 5627 5626 5625 5624 5624 5623 5622 5621 5619 5618 5617 5615 5613 5612 5610 5608 5607 5605 5603 5601 5599 5597 5594 5592 5589 5586 5584 5583 5583 5583 5584 5585 5586 5587 5588 5590 5592 5593 5594 5596 5598 5599 5601 5604 5607 5611 5616 5620 5624
5656 5654 5652 5651 5649 5647 5645 5644 5643 5641 5640 5639 5638 5637 5636 5635 5634 5632 5631 5630 5629 5628 5627 5626 5625 5624 5622 5621 5621 5620 5619 5618 5617 5616 5615 5614 5612 5611 5609 5608 5606 5605 5604 5602 5599 5598 5596 5593 5591 5589 5586 5583 5582 5581 5582 5583 5583 5584 5586 5587 5588 5590 5591 5593 5596 5598 5599 5600 5603 5606 5609 5613 5617 5621
Wind_Speed
27 28 28 27 27 27 26 26 25 25 25 24 25 26 27 28 29 30 31 34 37 38 39 40 41 41 42 43 44 46 48 49 50 50 51 52 53 53 52 50 47 44 42 42 42 43 45 46 47 48 48 48 49 51 52 52 51 50 51 51 52 52 51 51 52 51 50 49 47 46 44 43 42 41
28 29 29 28 28 28 27 26 26 26 26 26 26 27 28 30 30 31 30 32 37 40 40 41 41 42 43 44 46 47 48 50 51 52 53 54 56 56 55 53 50 46 43 42 41 42 44 45 46 49 51 51 50 50 53 54 54 53 52 53 53 54 54 53 53 53 53 52 51 49 47 46 45 43
28 29 29 29 29 29 28 28 27 26 26 26 27 28 30 31 32 34 35 35 37 40 41 41 41 43 44 45 47 48 49 50 51 53 55 56 58 58 57 54 51 48 45 42 41 42 42 43 44 47 50 53 53 52 52 54 56 56 55 55 55 55 55 55 55 55 55 54 53 52 50 49 47 46
29 29 29 29 29 29 29 28 28 27 27 28 29 30 32 33 34 36 38 40 40 40 42 42 43 44 45 46 47 48 50 51 52 53 55 57 59 59 58 54 51 48 47 45 43 42 42 43 44 45 47 51 54 55 54 54 56 58 58 58 57 57 57 57 57 57 56 56 56 55 54 52 50 48
29 28 29 29 29 29 29 29 28 28 29 30 32 33 34 35 36 37 40 42 43 42 42 44 45 45 46 47 47 48 50 52 53 55 56 58 59 59 58 55 51 48 47 47 45 43 43 43 44 44 45 48 53 56 56 56 56 58 59 60 60 59 59 59 59 59 58 58 57 57 57 55 53 51
28 28 28 30 30 30 30 29 29 29 31 33 34 35 36 36 38 40 42 44 44 44 44 46 46 46 47 48 49 50 51 52 54 56 57 58 58 57 56 55 52 49 47 48 47 45 44 44 44 44 44 46 49 54 57 58 57 58 59 61 62 62 61 61 61 61 60 60 59 59 59 58 56 54
28 28 29 30 31 31 31 30 30 31 32 34 35 36 37 38 40 43 45 45 44 45 47 47 48 48 49 50 51 52 52 53 55 56 57 57 57 56 54 53 51 50 49 48 48 46 44 44 45 44 44 44 46 50 54 57 58 59 60 61 63 64 63 63 63 63 62 62 61 60 60 60 59 57
30 30 31 32 32 32 32 31 30 31 32 34 35 36 37 39 43 45 46 46 45 47 48 48 49 49 50 52 53 54 53 54 54 55 56 55 55 53 51 50 50 49 49 49 48 47 45 44 45 44 44 43 44 46 50 53 56 58 60 61 62 64 65 65 64 64 64 64 63 62 62 61 61 59
34 35 35 33 32 33 33 31 31 31 32 34 36 38 40 42 45 47 47 47 47 48 48 49 49 50 51 53 54 54 54 53 54 54 54 55 55 52 48 48 48 47 46 47 47 46 45 44 44 44 44 44 44 45 46 49 53 56 59 61 62 64 66 67 67 66 66 66 65 64 63 63 62 61
35 35 33 32 32 34 33 32 32 31 30 33 36 39 42 45 47 48 48 48 49 49 49 49 50 51 51 52 53 55 54 53 54 55 55 55 54 51 46 46 47 46 45 45 45 45 44 44 44 44 44 44 44 44 45 47 49 52 55 59 61 63 65 67 69 68 68 68 67 66 65 64 64 63
32 31 31 32 33 34 33 33 33 31 30 33 36 39 42 44 47 48 49 49 50 50 49 49 50 50 51 50 52 54 55 54 55 56 56 54 51 48 46 45 46 45 44 43 43 43 43 43 43 43 43 44 44 45 46 47 48 50 52 55 59 62 64 66 69 70 70 69 69 68 68 66 65 64
30 30 31 34 35 35 34 34 34 32 31 34 37 38 41 43 46 48 49 50 50 50 50 50 49 49 50 50 51 53 55 55 56 55 54 51 47 46 45 44 44 43 41 41 40 41 42 41 42 42 43 43 44 46 47 47 48 49 51 53 56 60 62 65 68 71 71 71 70 70 69 68 67 66
30 31 33 35 36 37 36 36 34 33 34 37 40 41 41 43 45 47 48 50 50 50 50 49 48 47 48 49 51 53 54 54 54 52 51 49 47 46 44 42 40 39 39 39 39 39 40 40 40 41 42 42 44 46 47 48 50 50 51 52 55 58 61 63 66 70 72 72 72 71 71 70 69 67
32 33 35 36 37 39 39 39 38 37 38 41 42 43 44 44 46 47 49 50 50 49 49 49 47 47 47 49 51 52 53 53 51 49 48 48 47 45 41 38 38 37 37 37 37 37 39 39 40 40 41 42 43 45 47 50 52 52 52 52 54 57 60 62 64 67 70 72 73 73 72 72 70 69
35 35 36 37 39 40 40 41 42 40 39 41 43 45 46 46 47 48 49 49 49 49 48 47 47 46 47 49 50 51 51 50 49 48 47 46 43 41 38 36 35 36 37 37 36 35 37 39 39 39 40 41 43 45 48 51 54 54 53 52 52 55 58 61 63 65 68 71 73 74 73 73 72 71
36 36 37 39 41 41 41 43 43 41 39 41 46 47 48 48 49 49 49 48 48 48 47 46 46 46 47 48 50 49 48 47 47 47 46 42 39 37 37 35 33 34 36 36 35 34 35 38 38 38 40 42 44 48 51 54 55 54 53 52 51 52 55 58 61 64 66 69 72 74 74 74 73 72
36 37 39 41 43 44 44 44 43 42 41 44 50 52 51 50 49 48 48 47 47 46 45 44 45 46 47 48 48 48 46 45 46 46 43 39 37 35 35 34 33 34 35 35 35 33 34 37 39 39 41 44 47 51 55 56 57 55 54 52 51 50 52 55 58 62 64 66 70 73 75 74 74 73
36 38 40 41 42 45 45 44 42 43 44 48 53 54 52 50 48 47 47 46 45 45 44 44 44 45 46 47 46 46 45 45 45 44 40 37 36 34 33 33 33 34 34 35 35 33 35 39 41 41 44 47 50 54 56 57 57 56 55 53 51 49 50 52 55 59 62 63 66 71 74 74 75 74
38 39 40 40 40 42 42 40 39 40 44 49 52 51 49 48 47 47 46 46 45 44 43 43 44 45 46 46 45 44 44 44 44 42 39 37 36 34 33 33 33 34 34 34 36 36 38 42 44 44 46 50 52 55 57 58 58 57 56 54 53 51 50 50 52 56 59 60 63 68 72 73 74 75
38 39 39 39 38 38 38 37 38 42 46 49 49 48 47 47 47 46 45 45 44 44 44 43 43 44 45 44 44 43 43 43 43 41 38 36 36 34 33 33 33 33 33 34 37 40 40 42 45 46 47 50 51 52 54 56 57 57 57 56 55 54 53 51 51 54 57 58 61 66 69 71 72 74
39 40 41 40 40 40 39 39 41 45 47 48 47 47 46 46 46 46 45 44 43 44 44 44 44 44 44 44 43 42 42 42 41 39 36 35 35 34 34 34 32 32 33 33 37 41 41 42 44 46 47 46 44 44 45 48 51 52 53 54 54 53 54 52 52 54 56 58 61 65 68 68 70 73
40 41 41 41 42 42 41 42 44 46 47 47 47 46 44 44 44 45 44 44 43 43 44 44 43 43 43 42 42 42 42 42 41 38 36 35 35 34 34 34 33 32 32 33 37 40 41 42 43 46 46 41 36 37 38 37 39 42 45 48 49 49 50 51 52 55 58 59 63 66 66 66 68 71
40 40 41 41 42 43 44 46 47 47 47 46 45 43 43 43 44 44 43 43 43 43 43 43 43 42 41 41 40 40 41 41 41 38 36 35 35 34 33 32 32 32 31 33 38 40 41 42 42 45 46 36 26 29 33 30 30 35 37 40 42 43 46 49 51 56 60 62 65 66 65 64 67 71
40 41 43 44 44 46 48 49 48 47 46 44 42 42 43 43 42 42 42 43 43 43 43 42 42 41 40 39 39 39 40 41 40 38 36 35 36 34 33 32 32 32 32 34 39 42 42 43 43 42 42 35 21 21 27 28 27 30 32 34 36 38 41 45 49 55 60 63 66 66 64 63 66 70
44 44 46 48 49 50 50 49 47 45 43 42 42 42 43 42 42 42 42 43 44 43 42 42 41 40 38 37 37 38 39 40 39 38 36 36 36 35 34 33 32 33 34 35 41 44 43 44 43 37 33 32 24 18 22 26 29 30 29 30 32 35 38 42 46 53 59 63 65 66 64 63 65 68
48 47 48 50 51 50 49 47 45 43 42 42 43 43 43 42 42 42 43 45 45 43 42 41 39 38 37 35 35 36 38 38 37 37 36 36 36 36 35 35 35 35 36 36 40 45 45 43 43 34 25 25 24 20 21 25 29 31 30 29 31 34 37 40 45 51 57 61 63 64 63 62 63 67
49 48 49 50 50 49 47 45 43 43 44 44 44 43 44 44 43 43 45 45 45 43 41 39 37 36 35 34 34 35 36 36 36 35 35 35 37 37 36 37 38 38 39 39 40 44 46 44 40 32 23 21 22 23 23 24 27 31 31 30 31 34 37 40 43 47 52 57 60 61 60 60 62 64
49 49 50 50 49 47 45 44 44 45 45 44 44 44 44 44 44 44 45 46 44 42 39 37 36 35 34 33 33 33 34 35 34 34 34 34 35 36 35 36 38 39 40 41 42 44 46 45 39 30 23 22 23 23 24 25 26 30 31 31 32 35 37 39 41 43 46 50 54 56 57 58 60 62
49 50 51 50 48 46 45 45 46 46 45 44 44 45 45 45 45 45 45 45 43 39 37 35 34 33 32 32 32 33 34 34 34 33 33 33 33 35 35 35 37 40 40 41 42 44 45 45 40 30 23 23 25 24 24 24 25 27 29 30 32 36 37 38 40 40 41 44 47 50 52 55 58 60
49 50 50 48 46 45 45 46 46 45 44 44 45 46 47 46 45 44 44 43 40 37 35 34 33 32 31 31 31 32 33 33 34 33 33 32 32 33 34 34 35 38 40 41 42 43 45 45 40 30 23 22 24 25 24 23 22 22 24 26 30 35 36 37 39 39 39 40 43 46 50 54 57 59
48 48 48 46 45 45 46 45 44 43 43 45 46 46 46 44 43 43 42 40 37 34 33 33 32 31 30 30 31 32 32 33 33 33 33 32 31 31 32 32 33 35 38 40 41 42 44 44 38 29 23 22 22 23 21 18 17 18 19 22 27 32 33 35 37 38 39 40 43 46 49 53 57 59
47 46 46 46 45 44 44 43 42 42 44 45 45 44 43 42 41 40 39 36 33 33 32 32 31 30 29 29 30 30 31 32 33 33 33 32 31 31 31 31 31 32 34 36 38 40 42 41 35 27 22 21 21 19 16 14 16 18 19 22 26 29 30 33 37 38 39 40 42 45 48 51 55 57
47 47 46 45 43 42 41 41 42 43 43 43 42 42 41 39 37 36 34 32 31 31 31 31 30 29 28 29 29 29 30 32 32 32 32 31 30 30 30 30 31 31 32 33 35 37 39 37 30 23 21 21 19 17 13 13 16 18 20 23 27 28 28 30 34 37 38 38 39 43 46 50 53 55
47 46 44 43 42 41 41 42 42 42 41 40 40 39 36 35 33 32 30 30 30 30 30 29 29 29 28 28 28 28 29 30 31 31 31 30 29 29 29 30 30 31 31 32 34 36 37 33 25 21 21 20 19 18 16 14 15 18 19 22 26 27 27 28 31 35 37 37 38 42 45 47 50 54
46 45 44 43 42 42 42 41 41 40 39 39 38 36 33 31 30 29 29 29 29 29 29 29 29 29 29 28 28 28 28 29 30 30 30 30 29 29 29 29 29 30 30 31 33 35 36 31 22 18 18 19 19 18 16 13 15 18 19 20 23 25 26 27 30 34 36 36 37 39 41 43 47 52
45 45 44 43 41 41 41 40 38 38 38 37 36 34 32 30 29 28 28 28 28 28 29 29 29 29 29 28 28 27 27 28 29 29 29 29 29 28 28 28 29 29 30 31 32 33 34 30 22 16 16 17 18 16 14 12 14 18 19 20 22 24 25 27 30 34 36 36 37 38 40 42 45 49
45 43 41 41 41 41 40 38 36 36 37 36 34 32 31 30 29 28 28 28 28 29 29 29 29 29 28 28 27 26 26 27 28 28 28 28 28 28 27 28 28 28 29 30 31 32 32 29 22 16 15 16 16 15 13 12 12 16 18 20 20 22 24 27 30 33 34 33 32 34 37 39 42 46
43 42 41 42 42 40 37 35 34 35 35 34 33 31 31 30 29 29 28 28 29 29 29 29 29 29 28 27 26 25 26 27 28 27 27 27 27 27 26 26 27 27 28 29 30 31 31 28 22 16 15 16 16 14 12 11 11 14 17 19 19 19 23 26 27 30 32 32 32 34 36 37 40 44
43 42 42 41 38 35 34 33 34 34 34 33 32 31 31 30 29 29 29 29 29 29 28 28 28 28 27 26 25 24 25 26 27 27 26 26 26 26 25 25 25 26 27 28 28 29 29 27 22 17 15 16 15 14 13 12 12 12 16 19 17 16 21 25 23 23 27 30 33 36 37 38 40 44
41 40 38 36 34 33 33 33 33 33 33 32 32 31 31 31 30 30 30 30 29 28 27 27 27 27 26 25 24 24 24 25 26 26 25 25 25 25 24 24 24 24 25 26 26 27 27 26 23 18 16 16 15 14 13 13 13 12 14 18 17 15 19 23 22 21 23 26 30 35 38 38 40 43
37 35 34 34 33 33 33 33 33 33 33 32 32 32 31 31 31 30 30 30 29 27 26 26 26 26 25 24 23 23 24 25 26 25 24 24 24 24 24 23 23 22 23 24 24 25 26 25 21 16 13 14 14 15 14 14 15 15 14 16 17 17 17 20 21 21 20 20 25 32 35 36 39 41
34 34 34 34 33 33 33 33 33 33 33 32 32 32 32 31 31 30 30 29 28 27 26 25 25 25 24 23 23 23 23 24 25 25 24 23 23 23 23 23 22 21 22 23 23 23 24 23 21 17 12 10 13 17 15 14 16 18 17 16 17 18 19 20 25 28 24 21 26 30 31 34 39 41
34 34 34 33 33 33 33 33 33 33 32 32 32 32 31 31 30 29 28 28 26 26 26 25 24 24 23 22 22 22 23 23 24 24 24 23 22 22 23 22 21 21 20 21 22 22 21 22 20 17 13 8 9 14 17 16 16 18 19 18 17 19 21 23 27 30 27 25 30 34 32 33 37 38
33 33 33 32 32 32 32 32 32 32 31 31 31 31 30 30 29 28 27 26 26 25 25 24 24 23 22 22 22 22 23 23 23 23 23 22 21 21 22 21 21 20 19 20 21 21 20 20 20 18 13 8 5 9 14 17 18 18 20 20 19 20 22 23 24 26 25 24 32 36 34 35 38 38
32 32 32 32 31 31 31 31 31 30 30 30 30 30 29 28 28 27 26 25 25 24 24 24 23 23 23 22 22 22 22 23 23 23 22 22 21 21 20 20 20 19 18 18 19 20 19 19 19 19 15 9 4 4 8 14 18 20 21 22 20 20 22 23 22 21 20 23 31 34 33 34 37 36
Wind_Direction
289 288 287 287 286 287 288 289 291 294 295 297 299 301 303 305 306 307 308 308 307 306 305 303 301 300 299 298 298 298 298 298 297 298 298 298 298 298 297 295 292 289 285 280 276 271 267 264 261 261 262 259 255 253 252 250 248 246 245 243 240 237 235 234 234 235 234 232 231 230 229 228 229 229
288 288 287 286 286 287 288 289 291 293 294 297 300 302 303 304 305 305 305 305 305 304 303 301 299 298 298 298 297 297 297 297 296 297 297 297 298 297 297 296 294 291 288 283 278 273 269 266 262 260 260 260 257 254 251 250 248 246 244 243 241 239 236 234 233 233 233 232 231 230 229 228 228 228
285 285 285 286 287 288 289 290 291 293 296 299 302 303 303 302 302 303 304 304 305 304 302 300 299 299 298 298 298 297 297 297 297 297 297 297 296 296 296 296 294 293 290 285 279 274 271 268 265 261 259 258 258 255 252 249 248 246 244 243 242 240 237 235 233 232 232 232 231 230 230 229 227 227
284 284 285 286 287 288 289 290 292 295 299 302 303 302 301 300 299 300 302 304 305 305 302 300 300 299 298 298 298 298 297 297 297 298 297 296 295 294 294 294 294 293 290 287 281 276 272 270 269 265 261 258 257 256 253 250 248 245 243 242 241 240 238 236 233 232 231 231 231 230 230 229 228 227
286 286 287 288 288 289 289 290 293 298 301 302 302 301 299 298 297 297 299 302 302 302 301 300 300 300 299 299 299 298 298 298 298 297 296 295 294 293 293 293 293 291 289 287 283 278 274 272 271 269 265 260 257 255 254 252 249 246 244 241 241 240 239 237 234 232 230 230 230 230 230 229 228 228
289 290 290 290 290 290 290 291 295 300 302 302 302 301 299 298 297 296 298 301 300 299 300 300 300 300 300 299 299 299 299 299 298 296 295 294 293 293 293 292 291 290 287 285 282 279 276 274 273 272 269 264 259 256 253 252 250 248 245 242 240 240 239 237 235 233 230 229 229 229 229 229 228 228
290 292 291 290 289 289 290 292 297 300 302 303 302 301 300 299 299 299 299 300 299 298 299 299 300 300 300 300 300 300 299 299 297 295 294 294 293 293 293 291 290 288 285 283 281 279 277 275 273 272 269 266 262 258 254 252 250 249 247 244 241 240 239 238 236 234 231 229 228 228 228 228 228 228
287 291 291 289 288 288 290 292 295 298 300 301 301 299 299 298 299 300 300 299 298 298 299 299 299 298 298 299 299 299 299 298 297 295 294 294 293 293 292 290 288 286 284 282 280 278 276 274 272 271 268 265 263 259 256 253 251 249 247 245 242 240 239 238 237 235 233 230 228 227 228 228 228 228
285 289 291 288 286 286 288 290 292 295 299 301 300 300 299 299 299 300 299 298 297 297 299 299 299 298 297 297 298 298 297 297 296 295 294 294 293 293 292 289 286 284 282 280 279 278 277 274 272 270 267 264 262 260 258 255 252 249 247 246 244 241 239 238 237 236 234 232 229 227 227 227 227 227
287 289 288 284 283 285 288 291 292 294 298 301 301 300 300 299 299 298 298 298 297 297 297 299 300 299 297 297 298 297 296 296 296 296 295 295 295 295 292 287 284 284 281 279 278 277 276 274 272 269 267 264 262 260 258 255 253 250 248 246 244 242 240 238 237 236 235 233 231 228 226 226 227 227
291 289 285 282 284 286 289 293 294 292 296 301 301 300 298 297 296 296 296 296 296 297 297 299 299 298 297 298 298 297 297 297 298 297 296 297 297 295 290 285 284 283 282 280 277 275 273 272 271 269 267 265 262 260 259 256 254 251 248 246 244 242 240 238 237 236 235 233 232 230 227 226 226 227
291 287 285 284 285 285 287 292 294 290 293 301 302 301 300 297 295 295 296 297 298 299 299 299 298 297 297 298 298 298 298 299 299 298 298 299 297 293 289 286 284 283 281 279 276 274 272 270 270 269 268 266 264 262 260 258 256 253 250 247 244 242 241 239 236 235 235 234 232 231 229 227 226 226
290 287 285 284 285 285 284 288 291 289 291 297 300 304 304 299 296 296 297 298 300 301 301 300 299 298 298 299 299 299 300 300 300 300 301 300 298 294 290 287 284 282 279 276 273 272 271 270 269 269 268 267 265 264 263 261 259 256 252 249 245 242 240 239 237 235 234 234 233 231 230 228 226 225
288 286 285 285 285 285 282 284 289 289 287 290 298 305 306 301 298 297 296 297 299 300 301 300 299 299 300 300 300 300 300 300 301 302 301 300 297 293 289 286 283 281 277 274 272 271 270 269 268 268 267 266 265 265 264 262 261 258 254 250 247 244 241 239 238 236 234 234 233 232 231 229 227 225
286 285 286 286 286 286 286 288 290 288 285 291 301 306 306 302 299 297 296 297 298 299 300 300 300 300 301 301 301 301 301 301 301 301 301 298 295 290 287 284 281 279 277 275 273 271 270 269 268 267 268 268 267 267 265 263 262 260 257 252 248 245 242 240 238 237 235 234 233 232 231 230 228 226
286 287 288 287 286 288 290 292 290 284 282 294 305 307 305 302 298 296 296 298 299 300 300 300 300 301 300 300 300 300 300 301 301 300 300 297 293 289 287 285 282 279 278 277 274 272 270 270 269 268 269 270 270 269 267 265 263 262 259 255 250 246 243 241 239 238 235 234 233 232 231 230 229 227
287 288 289 288 288 289 291 292 289 280 280 293 303 305 303 300 297 296 298 300 300 300 300 299 300 300 299 299 299 299 299 300 299 299 298 294 292 290 288 287 285 282 281 279 276 273 272 272 271 271 273 274 273 270 268 266 264 262 260 256 252 248 244 241 239 238 236 234 233 232 231 230 230 228
286 287 288 288 289 290 291 292 286 279 281 292 299 300 299 299 298 299 301 302 301 300 299 299 299 298 298 298 298 298 299 299 299 298 296 292 291 290 288 287 286 285 283 281 279 277 277 277 277 277 278 278 275 272 269 266 264 262 259 256 253 249 245 241 238 237 236 234 234 233 231 230 230 229
282 284 287 289 292 293 294 293 288 284 288 294 296 297 299 300 301 302 302 302 301 300 300 299 298 298 297 297 297 297 298 298 298 297 294 291 291 290 289 288 287 285 284 283 282 281 280 281 282 282 281 278 273 270 268 265 262 260 257 255 252 249 245 240 236 235 234 233 233 233 231 229 229 229
281 285 289 292 294 296 295 292 288 289 293 295 296 298 301 301 301 302 302 302 301 301 300 299 297 297 297 296 297 298 297 297 297 295 292 292 292 291 289 287 285 285 284 284 285 283 283 285 286 286 284 280 275 271 268 265 262 259 257 254 251 249 245 240 234 231 230 230 231 232 231 228 228 229
281 288 293 294 295 296 295 292 290 292 296 298 299 301 301 301 301 301 301 301 301 300 299 299 298 297 297 297 297 298 297 297 296 294 291 291 292 291 290 287 286 285 285 287 288 287 289 291 292 292 290 286 282 275 269 266 263 261 258 256 252 249 245 240 231 227 226 226 228 231 229 227 227 228
283 289 294 295 296 296 296 295 295 298 299 300 300 300 300 301 301 300 300 300 300 299 299 299 299 298 298 298 298 298 297 297 297 294 291 291 292 291 290 289 288 287 290 294 293 292 294 297 300 299 295 289 283 275 268 263 261 260 257 255 252 248 244 238 230 223 221 222 226 229 228 225 225 226
287 291 294 296 297 296 296 298 300 301 300 299 299 300 301 302 300 300 300 300 300 299 298 298 299 299 299 299 299 298 297 296 297 294 292 292 293 293 293 293 291 290 294 299 298 298 301 304 307 307 300 290 275 266 266 261 255 255 253 251 249 245 241 236 228 221 218 220 224 227 227 224 224 225
293 295 296 296 296 296 297 300 300 299 298 299 300 302 303 302 301 301 301 300 300 300 299 299 299 299 299 299 299 297 296 296 297 295 292 291 294 297 297 297 296 295 299 303 303 304 307 310 312 311 301 291 272 254 262 265 258 253 251 247 244 241 237 234 228 221 218 219 223 226 226 223 222 223
297 296 295 296 296 296 297 298 298 297 299 301 303 304 303 303 302 302 301 301 301 300 300 301 301 300 300 300 299 298 297 298 299 297 292 291 295 299 300 300 300 301 304 307 307 309 312 314 315 312 298 287 277 255 252 261 262 258 252 245 240 236 234 232 228 223 220 220 223 225 226 224 222 223
296 296 295 294 295 295 296 297 297 299 301 303 304 305 304 304 303 302 301 301 301 301 301 301 301 300 300 299 298 297 298 300 301 298 293 292 295 299 301 303 304 304 306 309 310 311 313 316 317 312 291 276 275 265 252 252 257 259 255 246 237 232 230 230 228 225 222 222 224 226 226 225 223 223
296 296 294 294 295 296 297 298 299 301 303 305 305 305 304 303 302 302 302 301 301 302 301 301 301 300 299 298 297 298 300 302 302 300 295 293 295 298 301 304 306 307 308 310 312 313 314 318 320 313 291 270 268 268 262 254 252 254 254 246 235 227 226 227 228 227 225 224 225 226 227 226 224 223
296 296 295 296 297 297 297 298 300 302 304 305 305 304 303 303 302 301 301 301 301 302 301 300 300 299 298 298 298 300 301 302 302 300 297 294 295 296 300 304 305 307 309 311 314 315 317 320 321 315 296 280 274 272 268 262 255 252 251 247 236 225 222 223 225 227 227 226 225 226 226 225 224 222
296 296 296 297 297 296 297 299 301 304 305 304 303 303 302 302 301 300 300 301 301 300 299 299 299 299 299 299 300 302 302 301 301 300 298 297 296 297 300 303 305 306 308 311 315 318 319 321 320 314 298 288 287 283 277 271 263 255 251 247 236 225 220 220 221 223 225 224 224 224 223 222 221 220
295 295 296 295 294 295 297 300 302 304 303 302 302 301 301 300 300 299 299 300 299 298 298 298 299 299 299 300 302 303 302 301 301 300 300 300 299 299 300 302 304 306 309 313 316 318 320 321 319 311 299 292 291 289 284 279 270 259 251 245 234 225 221 220 219 220 222 221 220 220 219 218 217 217
293 294 293 292 292 294 298 300 301 301 300 301 301 300 300 300 299 298 298 298 297 296 296 298 299 300 300 301 302 303 302 302 301 301 301 302 301 300 300 301 302 305 309 313 317 318 320 321 317 307 298 295 292 287 285 280 267 254 245 237 229 222 220 218 217 219 220 218 216 216 216 215 214 214
291 290 290 290 293 296 298 299 298 299 301 301 301 301 300 299 298 297 296 296 295 296 297 299 301 302 301 300 300 301 301 301 301 301 302 303 302 301 300 300 302 304 308 312 315 317 319 319 314 303 295 294 290 282 275 267 252 238 227 221 218 216 216 214 214 216 218 217 214 214 214 214 213 212
289 289 290 292 295 297 297 297 298 300 301 301 301 301 300 298 296 295 294 294 296 297 299 302 302 302 299 298 298 299 300 300 301 301 302 303 303 303 302 303 304 305 308 312 314 316 318 318 313 300 292 291 284 267 255 253 245 231 220 214 212 211 213 213 213 215 216 214 211 212 214 214 213 212
289 291 293 295 297 298 297 298 300 300 300 300 300 300 298 295 294 293 293 295 297 299 301 302 302 300 298 297 297 298 299 300 301 302 303 303 304 304 305 305 306 307 311 314 316 318 320 320 312 297 288 284 273 258 252 253 244 229 220 215 212 211 212 212 213 215 213 209 208 210 213 214 213 212
291 294 296 297 297 297 298 299 299 298 298 299 299 298 295 292 291 292 294 297 299 300 302 301 300 298 298 298 298 299 299 300 301 302 304 304 305 306 306 306 307 309 313 316 319 322 324 322 310 291 279 274 269 263 260 253 235 226 222 218 215 214 213 211 211 210 207 206 208 210 211 212 213 213
294 296 296 296 296 297 298 299 298 297 297 298 297 295 293 290 290 292 295 298 299 300 300 299 298 298 298 299 300 300 299 301 302 303 304 305 305 306 307 308 309 311 314 318 321 325 327 324 312 290 274 268 266 267 266 252 229 223 225 222 218 217 214 212 213 210 204 202 205 207 209 211 211 212
295 296 295 295 296 297 298 297 296 296 296 296 294 292 290 290 291 294 296 298 298 298 298 297 297 298 299 300 301 301 300 301 302 303 304 305 305 306 307 309 311 313 316 320 323 327 330 326 312 290 273 269 267 266 269 259 232 222 225 224 220 216 213 212 214 211 205 202 203 205 207 209 209 210
295 294 294 294 296 296 295 294 294 294 294 293 292 290 289 290 293 295 296 297 297 297 297 296 296 298 299 300 301 301 301 302 302 302 303 304 305 306 308 309 311 314 317 321 325 330 332 329 317 294 274 269 267 263 262 257 236 221 221 222 220 216 213 214 215 210 203 201 202 204 206 207 207 207
294 294 294 294 294 293 293 293 293 293 292 291 289 289 289 291 293 294 295 295 295 295 295 295 295 297 298 300 301 302 301 301 301 302 303 304 306 307 308 310 312 315 318 322 326 330 333 334 327 306 280 269 264 259 254 248 233 218 216 220 224 221 215 215 215 209 204 200 198 201 205 206 205 206
294 294 294 293 292 293 294 293 292 291 290 289 288 288 289 290 291 292 293 293 294 294 294 294 295 296 297 299 301 301 300 299 299 300 301 303 305 306 308 310 312 314 317 320 324 328 333 338 336 318 290 272 260 254 251 239 225 217 214 217 223 224 217 217 218 213 207 202 196 196 201 203 203 204
295 294 293 293 293 294 294 293 291 290 288 287 287 288 289 289 290 291 291 292 292 293 293 293 293 294 296 298 299 300 299 297 297 298 300 302 303 305 308 311 311 313 316 319 323 329 334 341 346 339 310 279 255 246 247 237 225 222 217 213 218 219 215 215 214 203 195 197 198 195 196 199 200 202
294 294 294 295 296 296 294 292 291 289 288 287 287 288 288 289 289 290 290 290 291 291 291 291 292 293 295 296 297 297 297 296 296 298 299 301 303 304 307 310 311 313 316 318 322 328 333 338 350 359 345 299 255 241 240 235 228 224 218 214 216 213 206 204 202 195 193 203 205 199 196 199 201 201
296 296 297 297 297 295 294 292 290 289 288 288 288 288 288 288 289 289 289 289 289 289 290 290 291 292 293 294 295 295 294 294 295 296 298 300 302 303 305 309 311 314 317 318 320 326 331 335 344 355 359 335 273 244 235 231 228 222 218 217 215 208 207 211 212 212 216 213 202 197 198 202 203 204
298 298 299 298 296 295 293 292 290 290 289 289 289 289 289 288 288 288 287 288 288 288 289 290 290 291 292 292 293 293 292 291 292 294 296 299 300 302 304 307 310 314 316 317 319 322 328 334 339 346 356 358 311 255 236 228 225 220 217 218 214 208 213 220 224 231 234 214 193 191 196 198 200 203
300 300 299 299 297 295 294 292 291 290 290 290 289 289 288 288 287 286 286 287 287 288 288 289 290 290 291 291 291 291 290 290 290 291 293 296 299 301 303 305 309 312 315 316 317 319 324 331 337 344 354 7 357 282 247 231 224 219 217 217 212 211 218 224 226 234 235 210 192 193 197 195 195 200